NT2C Weather Reports


Display with metric or nautical units.
time (UTC)temp
F
wind
direction
speed
MPH
gust
MPH
rain 1hr
in
rain 24hr
in
rain mn
in
humidity
%
barometer
mb
20260504043048 49 201 0.0 0.0 0.00 0.00 0.00 63 1008.4
20260504042544 48 201 0.0 0.0 0.00 0.00 0.00 63 1008.3
20260504042039 48 201 0.0 1.0 0.00 0.00 0.00 64 1008.3
20260504041539 48 201 0.0 1.0 0.00 0.00 0.00 64 1008.4
20260504041037 48 207 0.0 1.0 0.00 0.00 0.00 65 1008.5
20260504040538 47 214 0.0 0.0 0.00 0.00 0.00 67 1008.4
20260504040035 47 214 0.0 0.0 0.00 0.00 0.00 67 1008.4
20260504035535 47 214 0.0 0.0 0.00 0.00 0.00 67 1008.4
20260504035036 46 214 0.0 0.0 0.00 0.00 0.00 67 1008.4
20260504034535 46 214 0.0 1.0 0.00 0.00 0.00 66 1008.5
20260504034034 46 214 0.0 1.0 0.00 0.00 0.00 67 1008.4
20260504033538 46 214 0.0 0.0 0.00 0.00 0.00 68 1008.4
20260504033037 45 214 0.0 0.0 0.00 0.00 0.00 69 1008.3
20260504032534 45 214 0.0 0.0 0.00 0.00 0.00 69 1008.3
20260504032035 45 214 0.0 0.0 0.00 0.00 0.00 67 1008.4
20260504031535 45 214 0.0 0.0 0.00 0.00 0.00 67 1008.4
20260504031034 46 214 0.0 0.0 0.00 0.00 0.00 65 1008.4
20260504030534 46 214 0.0 0.0 0.00 0.00 0.00 65 1008.4
20260504030034 46 214 0.0 0.0 0.00 0.00 0.00 64 1008.4
20260504025533 46 214 0.0 0.0 0.00 0.00 0.00 65 1008.3
20260504025033 47 214 0.0 0.0 0.00 0.00 0.00 66 1008.3
20260504024535 47 214 0.0 0.0 0.00 0.00 0.00 63 1008.3
20260504024033 48 214 0.0 0.0 0.00 0.00 0.00 62 1008.3
20260504023532 48 214 0.0 0.0 0.00 0.00 0.00 62 1008.4
20260504023032 48 214 0.0 0.0 0.00 0.00 0.00 61 1008.3
20260504022532 48 214 0.0 0.0 0.00 0.00 0.00 61 1008.4
20260504022032 48 214 0.0 0.0 0.00 0.00 0.00 60 1008.4
20260504021533 48 214 0.0 0.0 0.00 0.00 0.00 59 1008.2
20260504021031 49 214 0.0 0.0 0.00 0.00 0.00 58 1008.3
20260504020532 49 214 0.0 0.0 0.00 0.00 0.00 59 1008.2
20260504020033 49 214 0.0 0.0 0.00 0.00 0.00 57 1008.2
20260504015531 50 214 0.0 0.0 0.00 0.00 0.00 56 1008.1
20260504015032 50 214 0.0 0.0 0.00 0.00 0.00 56 1008.2
20260504014538 51 214 0.0 0.0 0.00 0.00 0.00 55 1008.2
20260504014032 52 214 0.0 1.0 0.00 0.00 0.00 55 1008.1
20260504013530 52 214 0.0 2.0 0.00 0.00 0.00 54 1008.2
20260504013030 52 193 0.0 2.0 0.00 0.00 0.00 54 1008.1
20260504012533 51 194 0.0 2.0 0.00 0.00 0.00 55 1008.0
20260504012033 51 193 0.0 3.0 0.00 0.00 0.00 56 1007.9
20260504011530 51 207 0.0 3.0 0.00 0.00 0.00 57 1007.8
20260504011029 51 214 0.0 0.0 0.00 0.00 0.00 58 1007.8
20260504010529 51 268 0.0 0.0 0.00 0.00 0.00 55 1007.7
20260504010029 51 268 0.0 0.0 0.00 0.00 0.00 56 1007.6
20260504005530 51 271 0.0 0.0 0.00 0.00 0.00 55 1007.7
20260504005029 51 271 0.0 0.0 0.00 0.00 0.00 57 1007.6
20260504004528 51 271 0.0 0.0 0.00 0.00 0.00 58 1007.6
20260504004030 52 271 0.0 0.0 0.00 0.00 0.00 57 1007.5
20260504003527 53 271 0.0 0.0 0.00 0.00 0.00 55 1007.3
20260504003034 53 271 0.0 0.0 0.00 0.00 0.00 54 1007.3
20260504002528 54 271 0.0 0.0 0.00 0.00 0.00 52 1007.3
20260504002028 55 271 0.0 0.0 0.00 0.00 0.00 50 1007.3
20260504001536 56 271 0.0 0.0 0.00 0.00 0.00 50 1007.3
20260504001028 57 271 0.0 0.0 0.00 0.00 0.00 48 1007.4
20260504000528 58 271 0.0 0.0 0.00 0.00 0.00 45 1007.3
20260504000027 59 271 0.0 0.0 0.00 0.00 0.00 43 1007.2
20260503235526 61 271 0.0 0.0 0.00 0.00 0.00 39 1007.2
20260503235026 62 271 0.0 0.0 0.00 0.00 0.00 37 1007.2
20260503234526 63 271 0.0 0.0 0.00 0.00 0.00 37 1007.1
20260503234026 64 271 0.0 0.0 0.00 0.00 0.00 36 1007.1
20260503233525 64 271 0.0 0.0 0.00 0.00 0.00 34 1006.9
20260503233025 64 271 0.0 1.0 0.00 0.00 0.00 33 1007.0
20260503232525 64 281 0.0 3.0 0.00 0.00 0.00 35 1007.0
20260503232027 64 274 0.0 3.0 0.00 0.00 0.00 34 1006.9
20260503231525 64 290 0.0 3.0 0.00 0.00 0.00 34 1006.9
20260503231023 63 231 0.0 7.0 0.00 0.00 0.00 34 1006.9
20260503230526 63 268 3.0 7.0 0.00 0.00 0.00 32 1006.9
20260503230022 63 240 0.0 6.0 0.00 0.00 0.00 34 1007.0
20260503225522 63 233 1.0 6.0 0.00 0.00 0.00 34 1007.0
20260503225022 63 210 3.0 6.0 0.00 0.00 0.00 33 1007.1
20260503224522 63 281 1.0 4.0 0.00 0.00 0.00 33 1007.0
20260503224022 63 249 0.0 4.0 0.00 0.00 0.00 33 1007.0
20260503223522 63 250 1.0 6.0 0.00 0.00 0.00 33 1007.2
20260503223022 63 262 1.0 7.0 0.00 0.00 0.00 33 1007.3
20260503222521 63 240 3.0 8.0 0.00 0.00 0.00 33 1007.3
20260503222021 63 245 3.0 8.0 0.00 0.00 0.00 34 1007.2
20260503221523 63 283 2.0 10.0 0.00 0.00 0.00 33 1007.3
20260503221021 63 291 3.0 10.0 0.00 0.00 0.00 33 1007.3
20260503220522 63 264 4.0 9.0 0.00 0.00 0.00 33 1007.2
20260503220025 63 299 1.0 7.0 0.00 0.00 0.00 33 1007.1
20260503215519 63 243 2.0 7.0 0.00 0.00 0.00 33 1007.1
20260503215020 63 213 1.0 8.0 0.00 0.00 0.00 35 1007.0
20260503214525 63 312 4.0 9.0 0.00 0.00 0.00 33 1007.2
20260503214018 63 227 0.0 8.0 0.00 0.00 0.00 34 1007.2
20260503213518 63 228 0.0 8.0 0.00 0.00 0.00 35 1007.3
20260503213019 62 278 5.0 10.0 0.00 0.00 0.00 33 1007.3
20260503212516 62 240 5.0 15.0 0.00 0.00 0.00 33 1007.3
20260503212017 62 279 9.0 15.0 0.00 0.00 0.00 33 1007.3
20260503211517 63 237 4.0 9.0 0.00 0.00 0.00 35 1007.3
20260503211015 63 270 3.0 10.0 0.00 0.00 0.00 34 1007.5
20260503210514 63 284 2.0 11.0 0.00 0.00 0.00 34 1007.5
20260503210013 63 295 3.0 11.0 0.00 0.00 0.00 35 1007.5
20260503205512 62 293 3.0 12.0 0.00 0.00 0.00 35 1007.4
20260503205013 62 290 2.0 12.0 0.00 0.00 0.00 35 1007.5
20260503204518 62 203 5.0 13.0 0.00 0.00 0.00 35 1007.5
20260503204013 62 225 4.0 13.0 0.00 0.00 0.00 35 1007.6
20260503203510 62 231 3.0 10.0 0.00 0.00 0.00 36 1007.5
20260503203010 62 8 5.0 10.0 0.00 0.00 0.00 35 1007.6
20260503202509 62 298 1.0 11.0 0.00 0.00 0.00 35 1007.5
20260503202008 61 231 6.0 14.0 0.00 0.00 0.00 35 1007.6
20260503201509 61 271 8.0 14.0 0.00 0.00 0.00 34 1007.7
20260503201006 62 240 3.0 10.0 0.00 0.00 0.00 34 1007.6
20260503200505 62 25 3.0 8.0 0.00 0.00 0.00 35 1007.8
20260503200007 61 288 2.0 12.0 0.00 0.00 0.00 35 1007.9
20260503195504 61 294 2.0 10.0 0.00 0.00 0.00 36 1008.1
20260503195003 61 307 4.0 11.0 0.00 0.00 0.00 35 1008.3
20260503194503 62 240 3.0 9.0 0.00 0.00 0.00 35 1008.4
20260503194003 60 319 2.0 10.0 0.00 0.00 0.00 37 1008.4
20260503193502 61 230 5.0 10.0 0.00 0.00 0.00 35 1008.4
20260503193001 61 262 2.0 13.0 0.00 0.00 0.00 37 1008.6
20260503192501 61 255 6.0 13.0 0.00 0.00 0.00 36 1008.6
20260503192100 61 250 3.0 13.0 0.00 0.00 0.00 39 1008.6
20260503192002 60 343 3.0 13.0 0.00 0.00 0.00 38 1008.8
20260503191602 60 195 4.0 10.0 0.00 0.00 0.00 38 1008.8
20260503191100 60 200 3.0 9.0 0.00 0.00 0.00 36 1008.9
20260503190600 60 236 3.0 10.0 0.00 0.00 0.00 37 1008.9
20260503190059 60 294 4.0 10.0 0.00 0.00 0.00 37 1008.9
20260503185558 60 300 2.0 10.0 0.00 0.00 0.00 37 1008.9
20260503185059 59 233 4.0 11.0 0.00 0.00 0.00 37 1009.0
20260503184605 59 284 6.0 13.0 0.00 0.00 0.00 36 1009.1
20260503184059 59 301 6.0 13.0 0.00 0.00 0.00 35 1009.2
20260503183557 59 303 2.0 13.0 0.00 0.00 0.00 36 1009.2
20260503183057 59 291 6.0 13.0 0.00 0.00 0.00 36 1009.3
20260503182557 59 313 3.0 13.0 0.00 0.00 0.00 37 1009.3
20260503182055 59 302 4.0 11.0 0.00 0.00 0.00 38 1009.2
20260503181556 58 231 5.0 12.0 0.00 0.00 0.00 38 1009.3
20260503181053 59 291 4.0 12.0 0.00 0.00 0.00 39 1009.4
20260503180552 58 323 4.0 11.0 0.00 0.00 0.00 38 1009.5
20260503180104 58 357 4.0 9.0 0.00 0.00 0.00 37 1009.5
20260503175551 57 302 1.0 18.0 0.00 0.00 0.00 37 1009.4
20260503175051 58 266 9.0 18.0 0.00 0.00 0.00 38 1009.6
20260503174550 57 312 6.0 12.0 0.00 0.00 0.00 38 1009.3
20260503174052 58 278 4.0 10.0 0.00 0.00 0.00 38 1009.4
20260503173549 57 349 2.0 10.0 0.00 0.00 0.00 39 1009.4
20260503173059 57 309 2.0 16.0 0.00 0.00 0.00 41 1009.6
20260503172549 57 230 6.0 18.0 0.00 0.00 0.00 39 1009.7
20260503172048 57 204 4.0 12.0 0.00 0.00 0.00 40 1009.6
20260503171548 57 281 4.0 9.0 0.00 0.00 0.00 40 1009.6
20260503171048 57 44 1.0 10.0 0.00 0.00 0.00 42 1009.8
20260503170548 57 297 3.0 11.0 0.00 0.00 0.00 40 1009.7
20260503150534 51 335 1.0 12.0 0.00 0.00 0.00 47 1010.7
20260503131026 48 295 4.0 18.0 0.00 0.00 0.00 58 1010.8
20260503130525 48 327 2.0 15.0 0.00 0.00 0.00 58 1010.8
20260503110516 42 297 0.0 6.0 0.00 0.00 0.00 71 1009.7
20260503081543 43 289 0.0 3.0 0.00 0.00 0.00 66 1007.7
20260503081043 44 298 0.0 3.0 0.00 0.00 0.00 66 1007.7
20260503080542 44 281 0.0 8.0 0.00 0.00 0.00 65 1007.6
20260503072534 45 294 1.0 6.0 0.00 0.00 0.00 62 1007.4
20260503072031 46 298 2.0 8.0 0.00 0.00 0.00 62 1007.3
20260503071531 46 300 1.0 10.0 0.00 0.00 0.00 62 1007.3
20260503071029 46 340 1.0 6.0 0.00 0.00 0.00 62 1007.2
20260503070532 46 345 2.0 8.0 0.00 0.00 0.00 61 1007.1
20260503055016 48 10 0.0 7.0 0.00 0.00 0.00 59 1006.8
20260503054518 48 322 2.0 7.0 0.00 0.00 0.00 58 1006.8
20260503054016 48 65 1.0 7.0 0.00 0.00 0.00 58 1006.8
20260503053518 48 11 1.0 9.0 0.00 0.00 0.00 57 1006.8
20260503053014 49 307 1.0 9.0 0.00 0.00 0.00 57 1006.9
20260503052513 49 335 2.0 12.0 0.00 0.00 0.00 57 1006.8
20260503052013 49 37 3.0 12.0 0.00 0.00 0.00 57 1006.8
20260503051512 49 283 0.0 6.0 0.00 0.00 0.00 58 1006.8
20260503051011 49 71 0.0 6.0 0.00 0.00 0.00 57 1006.8
20260503050511 50 330 3.0 8.0 0.00 0.00 0.00 57 1006.8
20260503050011 50 49 3.0 10.0 0.00 0.00 0.00 56 1006.8
20260503045508 50 3 3.0 10.0 0.00 0.00 0.00 56 1006.8
20260503045011 50 59 1.0 7.0 0.00 0.00 0.00 56 1006.8
20260503044507 50 320 0.0 13.0 0.00 0.00 0.00 56 1006.8
20260503044006 51 50 1.0 13.0 0.00 0.00 0.00 56 1006.8
20260503043505 51 329 5.0 11.0 0.00 0.00 0.00 56 1006.8